Currently 64°F in Simi Valley, California, USA
64°F
70°F / 64°F
calm
0.00"
Thursday, September 23, 2021 5:02 AM PDT

Simi Valley, California Climate Summary
Typical July Day

Normal High:    86.5°F (30.3°C)
Normal Low:    61.2°F (16.2°C)
Average:    73.2°F (22.9°C)

Hour    Temperature    Wind Speed    Humidity
12:00 AM    67°F (19°C)    1 mph    67%
1:00 AM    66°F (19°C)    1 mph    68%
2:00 AM    65°F (18°C)    1 mph    70%
3:00 AM    64°F (18°C)    1 mph    71%
4:00 AM    63°F (17°C)    1 mph    72%
5:00 AM    63°F (17°C)    1 mph    73%
6:00 AM    62°F (17°C)    1 mph    75%
7:00 AM    62°F (17°C)    1 mph    76%
8:00 AM    67°F (19°C)    1 mph    73%
9:00 AM    71°F (22°C)    2 mph    67%
10:00 AM    76°F (24°C)    3 mph    58%
11:00 AM    80°F (27°C)    4 mph    50%
12:00 PM    83°F (28°C)    5 mph    46%
1:00 PM    85°F (29°C)    7 mph    44%
2:00 PM    85°F (29°C)    7 mph    43%
3:00 PM    85°F (29°C)    7 mph    43%
4:00 PM    84°F (29°C)    7 mph    43%
5:00 PM    83°F (28°C)    6 mph    44%
6:00 PM    82°F (28°C)    6 mph    46%
7:00 PM    79°F (26°C)    5 mph    49%
8:00 PM    75°F (24°C)    4 mph    57%
9:00 PM    72°F (22°C)    2 mph    62%
10:00 PM    70°F (21°C)    1 mph    65%
11:00 PM    68°F (20°C)    1 mph    66%
 

The Simi Valley, California weather pages are a service of WeatherCurrents.
Copyright ©2021  WeatherCurrents. All rights reserved. - Submit questions and comments - Privacy Policy